Location: Harmony
(28.2000°N, 81.1500°W)
Time: 01:37:12
(UTC-04:00)

ISS - Pass Details

Date: 18 December 2017
Orbit: 403 x 406 km, 51.6° (Epoch: 26 April)

Event Time Altitude Azimuth Distance (km) Brightness Sun altitude
Rises 18:30:29 0° 305° (NW) 2,345 0.6 -12.7°
Reaches altitude 10° 18:32:45 10° 294° (WNW) 1,478 -0.3 -13.1°
Maximum altitude 18:35:40 29° 232° (SW) 785 -1.6 -13.7°
Drops below altitude 10° 18:38:34 10° 170° (S) 1,465 -0.9 -14.3°
Enters shadow 18:46:32 -16° 149° (SSE) 4,621 1.4 -16.0°
